Weather in Vavilovets

Russia / Chelyabinsk Oblast     55°08′57″N   61°14′11″E
temp.,
°C
wind,
m/s
gust,
m/s
humid.,
%
clouds,
%
prec.,
mm/h
press.,
hPa
HPBL,
m
6 march, sat
sat623:00−6nw41095100 3.2 1001666
02:00−11w4128733 0.0 1006337
05:00−13w4118717 0.0 1009270
08:00−14w48870 0.0 1010137
11:00−8wsw510830 0.0 1010591
14:00−5w587531 0.0 10101248
17:00−5wsw398153 0.1 1010798
20:00−11wsw348457 0.0 101166
7 march, sun
sun723:00−13wsw239069 0.0 101326
02:00−14w239170 0.0 101320
05:00−15nnw019185 0.0 101320
08:00−15ese2293100 0.0 101120
11:00−11ne2293100 0.1 1010236
14:00−9nne3594100 0.6 1007379
17:00−10n4695100 1.3 1005365
20:00−13nw3496100 0.2 100688
8 march, mon
mon823:00−16wnw4108981 0.2 1009225
02:00−19w35920 0.0 101086
05:00−20sw33910 0.0 101129
08:00−18s368834 0.0 1010120
11:00−11ssw6129467 0.2 1009535
14:00−8ssw71285100 0.4 1006882
17:00−5ssw61285100 0.5 10051109
20:00−7ssw5148477 0.0 1004492
9 march, tue
tue923:00−6sw6158389 0.0 1004593
02:00−6ssw6158599 0.0 1003526
05:00−7sw41389100 0.0 1003526
08:00−7sw479595 0.2 1002189
11:00−4wsw488798 0.4 10031041
14:00−4w697444 0.1 10051197
17:00−6w498048 0.1 1007984
20:00−11w368558 0.0 100986
10 march, wed
wed1023:00−13wsw388841 0.0 1012121
02:00−16w359024 0.0 101286
05:00−18w338929 0.0 101349
08:00−19w349249 0.0 101364
11:00−14wnw368631 0.0 1013400
14:00−11nw248143 0.0 1013665
17:00−11nnw138372 0.0 1011652
20:00−14nnw2291100 0.0 101222